RH
72 64 36 34 39 47 53 48 41 32 27 17 14 14 12 14 28 29 21 16 13 8 8 8 8 9 9 9 13 33 63 76 84 75 70 64 61 61 59 58 67 63 67 63
79 76 69 43 37 45 52 58 54 47 31 31 21 14 14 13 12 14 30 28 22 19 17 15 11 9 9 9 19 36 43 50 49 57 62 57 57 61 62 61 59 60 59 58
51 80 78 76 54 42 48 55 60 59 50 35 35 27 15 13 13 12 11 15 31 29 23 19 12 7 10 9 12 21 28 33 38 30 32 39 41 40 48 54 47 30 18 19
46 44 68 82 81 69 50 50 54 59 67 49 42 39 36 17 13 14 13 12 9 15 32 21 10 7 10 10 10 10 14 22 28 29 26 20 18 16 14 15 15 12 11 10
37 45 50 54 82 85 79 68 56 56 60 70 51 47 44 43 22 14 14 14 13 10 9 24 18 7 8 9 9 9 9 9 8 17 20 20 21 20 18 16 13 12 11 8
16 31 40 50 56 82 87 83 76 69 61 68 74 59 52 52 52 35 19 14 14 14 13 10 12 22 13 6 6 7 8 8 8 8 10 13 10 12 15 14 13 11 8 7
9 13 24 40 49 54 83 88 87 78 77 70 73 79 69 58 59 59 47 31 16 13 14 14 12 9 9 13 18 16 9 7 6 6 6 6 7 10 8 8 9 8 8 8
11 14 17 34 45 49 57 85 86 88 81 81 78 77 80 72 66 65 63 56 41 22 15 14 13 13 11 10 9 9 9 14 16 17 10 7 6 6 7 6 8 8 9 10
4 20 22 31 42 50 55 73 88 91 92 86 84 79 84 78 76 70 62 66 56 45 31 21 17 13 13 15 13 11 10 9 7 7 8 13 15 13 14 17 23 25 26 26
3 4 20 31 40 46 53 60 82 90 96 92 86 82 80 81 73 75 78 71 60 56 52 44 36 32 25 19 15 13 11 10 9 9 8 8 7 7 6 7 7 7 8 9
3 3 4 26 33 43 49 56 62 89 95 94 90 94 86 78 78 73 76 78 78 70 62 59 54 49 47 42 38 26 18 14 13 10 9 7 9 8 7 7 8 7 7 7
4 4 4 4 29 38 48 47 56 68 86 94 95 93 94 91 78 81 84 81 74 76 79 70 67 68 63 60 56 62 44 40 23 23 19 8 8 9 8 8 8 8 8 7
4 4 4 4 6 8 41 50 49 53 66 87 96 94 97 98 96 85 84 86 80 89 80 81 80 80 84 75 70 51 70 70 61 31 30 23 8 11 11 8 8 9 9 9
5 5 5 4 5 6 13 42 54 54 54 60 77 92 100 98 97 94 89 90 93 94 89 93 93 83 72 88 67 81 95 88 61 43 28 14 15 14 12 11 9 9 8 8
7 7 8 8 7 7 11 14 46 57 56 55 58 67 89 94 98 96 95 95 94 92 97 100 100 94 82 84 70 97 82 78 50 33 48 35 33 23 18 16 14 15 11 10
10 9 13 30 21 9 11 31 34 54 56 52 51 51 64 82 94 97 98 97 96 94 92 95 92 92 79 69 74 98 87 75 71 62 66 60 70 67 52 38 34 35 26 20
53 43 23 40 55 35 27 48 57 56 60 58 48 41 50 67 93 95 97 97 96 94 79 83 86 86 85 76 95 92 91 90 96 83 69 76 71 68 81 77 75 72 69 58
80 78 69 57 61 54 49 64 59 60 60 54 51 42 47 62 78 93 95 96 96 94 84 71 81 73 81 95 90 91 95 89 94 92 79 75 76 80 81 78 73 72 80 73
72 65 63 69 66 60 65 66 55 51 55 45 41 48 55 63 78 95 93 96 93 82 80 88 79 64 76 96 86 92 94 90 96 98 96 94 90 93 93 93 90 74 80 83
68 67 63 63 65 75 71 63 54 43 43 44 38 48 65 76 80 85 97 82 84 75 63 71 64 54 100 92 91 89 92 91 87 73 94 96 95 92 93 95 94 93 98 94
42 60 65 62 62 68 68 55 46 45 41 37 35 44 60 75 78 79 81 88 89 68 61 67 46 45 100 92 84 90 89 90 90 84 85 77 77 93 96 96 97 95 96 97
16 15 23 40 50 63 61 45 43 40 39 42 43 46 50 54 70 81 70 68 68 68 62 53 35 66 84 94 85 94 89 81 88 90 84 82 78 78 78 86 93 94 94 96
7 7 8 10 14 20 26 29 33 35 40 38 31 28 39 53 61 66 62 57 50 52 53 46 45 67 83 88 88 82 79 93 94 100 100 99 92 89 92 94 99 95 99 100
3 3 3 6 10 13 11 12 14 20 22 15 12 11 10 15 20 25 34 44 39 39 40 39 43 43 42 47 55 64 64 73 73 82 91 97 95 97 100 98 96 95 97 100
4 4 3 5 6 5 4 3 4 4 4 4 4 5 5 8 13 25 41 34 16 16 17 23 52 42 54 69 59 61 59 73 90 73 95 80 66 82 94 99 93 98 97 96
6 4 2 2 2 2 2 2 2 2 3 3 3 3 3 4 8 19 23 19 7 19 78 69 81 95 100 99 59 86 100 98 100 90 90 100 100 98 89 99 100 100 100 100
6 3 3 3 3 3 4 4 4 3 3 3 4 6 20 65 58 8 12 13 31 77 100 99 100 100 100 100 69 78 100 100 97 94 82 84 93 90 93 100 98 100 100 97
Wind_Speed
27 24 23 22 24 28 29 29 30 29 29 29 32 31 31 27 19 16 16 15 15 12 11 12 14 15 15 16 14 14 13 13 13 11 8 5 4 5 4 4 3 2 2 2
27 26 23 22 21 22 26 28 28 27 26 27 28 28 30 30 27 21 13 12 13 12 12 11 9 9 10 12 10 9 9 10 12 11 11 9 8 8 10 10 9 9 6 4
29 27 25 23 21 20 20 23 25 26 24 23 24 24 25 27 28 28 24 17 12 12 14 12 8 5 5 6 6 6 7 10 10 9 10 10 8 8 9 9 9 10 10 10
31 28 27 24 21 21 21 19 22 24 24 22 21 22 22 22 24 26 26 26 23 15 14 15 11 3 4 4 4 6 6 8 8 7 7 7 8 9 9 9 8 8 9 10
29 31 30 26 25 21 21 21 19 20 21 20 18 19 20 19 19 20 21 23 25 25 19 13 13 6 5 5 6 7 8 8 9 9 7 8 9 10 10 9 10 12 13 16
29 29 29 31 27 25 22 22 22 20 20 19 17 16 16 19 19 17 17 17 19 21 22 22 16 10 11 8 11 12 11 11 12 14 12 13 11 12 12 12 14 14 16 20
34 33 30 29 30 27 25 23 23 22 20 20 19 17 16 15 17 18 16 15 15 15 17 17 19 20 17 13 11 12 13 15 17 17 17 16 17 18 18 19 21 21 21 23
34 35 36 32 28 30 27 25 24 23 21 21 21 21 18 17 15 16 17 16 14 14 13 14 16 17 16 18 18 18 16 15 17 15 14 16 21 21 24 24 26 26 27 27
32 34 34 36 32 28 31 27 26 25 24 22 22 23 21 19 18 18 15 15 15 14 14 15 14 14 15 17 17 17 18 19 17 18 16 18 18 18 19 21 20 25 27 25
37 35 37 36 36 32 30 30 28 27 28 26 23 23 24 22 19 19 21 18 16 16 16 15 16 17 18 15 17 20 20 18 18 19 16 15 18 20 20 20 21 21 24 25
41 40 39 38 37 38 32 33 31 28 26 31 26 26 25 26 25 23 23 22 22 18 19 19 20 19 20 21 20 21 22 22 19 21 23 17 19 19 19 19 23 24 25 25
46 44 44 42 40 39 37 37 35 32 28 30 32 29 28 27 28 27 27 28 24 24 24 22 22 23 24 25 22 23 23 26 26 25 22 24 18 23 24 23 26 25 26 28
50 48 46 47 46 45 41 38 39 37 33 32 35 34 31 33 33 32 31 32 29 29 28 27 26 26 30 26 25 24 27 30 30 29 19 28 24 23 24 25 24 27 27 25
56 55 51 50 49 50 48 44 41 42 40 34 35 35 30 28 29 28 30 32 35 33 33 35 29 29 33 29 27 23 25 35 37 35 28 33 29 31 29 29 28 29 26 24
62 60 58 53 52 53 53 52 47 43 45 44 39 42 42 41 36 36 35 35 36 37 38 36 34 30 36 34 24 21 28 35 39 40 38 31 28 32 34 36 34 32 30 31
65 63 61 58 59 57 57 56 51 49 48 50 46 44 44 43 45 41 37 38 38 40 40 41 36 36 38 36 26 26 31 31 36 38 41 31 37 35 37 39 36 39 38 38
67 67 66 66 64 64 62 60 53 53 54 52 53 51 46 41 41 45 45 41 38 38 39 39 36 38 43 37 35 31 33 34 37 38 38 37 38 33 33 35 39 42 42 44
67 67 67 68 66 64 63 61 61 57 59 59 55 52 51 48 41 44 46 45 47 47 44 39 41 44 44 41 43 38 37 36 37 40 38 36 39 42 38 35 35 38 41 45
57 58 59 59 58 59 59 60 63 63 62 63 60 57 58 58 55 50 48 49 50 49 46 46 50 48 45 46 50 51 50 46 43 43 45 47 43 43 44 45 43 43 42 41
70 69 64 61 60 60 60 61 60 63 65 65 62 64 65 65 66 62 60 60 58 57 56 55 54 52 46 51 52 53 56 55 55 53 51 53 49 48 46 48 51 47 47 46
73 71 71 66 63 64 64 63 67 70 69 66 65 68 72 72 71 68 67 67 67 66 64 64 60 56 48 53 55 54 56 57 57 62 58 57 55 53 50 47 50 51 50 50
76 75 75 75 73 71 74 74 76 76 73 73 73 75 79 80 82 80 76 74 76 75 71 69 61 59 60 58 60 58 58 59 60 61 60 59 58 56 54 53 54 53 52 52
74 73 76 74 74 76 79 79 82 82 81 80 80 80 82 83 85 86 83 84 85 82 79 76 73 68 63 63 62 65 68 62 62 62 58 56 55 51 49 46 47 48 49 53
73 71 70 73 78 84 79 75 74 77 79 79 78 78 77 80 78 75 81 76 82 84 85 79 68 67 74 72 76 79 71 67 66 65 63 60 59 57 56 54 50 49 48 49
69 69 71 76 76 73 71 69 66 67 68 66 67 71 72 69 69 68 68 73 80 81 74 60 58 64 66 67 64 62 63 59 57 58 50 64 63 61 61 63 63 65 64 61
71 72 70 66 65 64 64 61 60 60 59 60 61 62 64 65 64 65 66 71 77 69 59 61 65 63 52 65 61 60 62 65 62 62 60 65 66 67 65 63 59 61 64 62
76 67 63 62 62 59 57 55 56 58 57 57 57 59 59 61 64 67 69 70 65 64 60 61 65 67 69 71 70 67 70 74 74 75 74 72 72 70 70 67 63 66 61 60
Wind_Direction
19 16 11 16 22 21 25 27 30 30 28 36 44 48 46 47 51 47 46 42 33 20 7 0 355 356 359 8 15 26 39 46 43 36 44 43 42 67 81 71 60 63 274 292
13 14 12 5 7 18 16 21 24 25 25 26 31 41 45 44 46 47 46 42 40 32 21 22 10 353 0 5 23 27 29 30 37 44 53 62 65 66 55 51 52 42 49 33
11 6 7 6 359 357 9 10 15 17 19 22 22 26 36 42 41 41 39 40 36 35 38 35 24 343 347 0 23 17 13 28 37 48 55 54 53 44 51 68 68 44 30 20
10 9 0 356 360 352 348 355 358 6 9 11 15 16 21 28 36 37 37 36 35 33 35 37 36 9 338 0 360 359 1 8 14 25 24 27 31 32 36 37 26 18 14 13
9 6 3 353 347 350 346 339 341 347 354 358 2 8 8 15 17 26 30 33 35 34 38 40 35 23 317 322 330 331 336 342 337 332 347 350 353 356 354 351 348 337 333 331
351 1 359 356 346 339 340 339 334 333 337 340 346 349 355 359 5 8 12 17 25 26 28 36 33 24 24 334 312 307 310 315 320 318 322 326 325 323 323 321 317 323 323 325
335 340 347 350 348 339 332 331 330 327 327 324 323 330 332 337 343 350 356 357 0 9 15 23 26 27 23 7 354 353 341 317 307 307 304 309 310 308 307 312 307 313 312 314
328 329 334 341 341 338 335 327 327 321 316 317 313 310 316 317 325 329 336 341 343 341 347 357 0 8 10 9 12 9 356 335 328 333 331 315 308 309 311 309 305 310 309 309
318 321 324 327 333 331 333 331 325 323 315 313 313 307 304 309 312 314 313 321 328 328 326 324 332 338 342 345 346 349 351 351 352 352 342 324 327 326 321 320 319 312 311 314
310 312 314 317 320 323 324 327 323 323 316 311 307 304 299 299 299 303 305 309 305 312 315 316 312 313 315 321 324 326 328 331 332 335 338 334 331 344 345 343 344 349 347 334
302 304 308 306 309 312 315 317 319 316 317 308 307 300 295 293 294 299 295 299 296 297 303 306 308 308 309 309 308 305 311 313 312 313 315 313 320 324 333 336 350 354 356 359
296 298 299 303 298 301 304 307 309 313 308 306 303 297 294 289 286 288 289 293 288 296 295 297 299 301 298 297 306 304 304 300 299 300 307 294 302 314 314 319 326 335 341 346
290 293 294 296 294 293 293 297 300 301 303 299 296 295 291 287 283 286 283 287 284 291 291 292 294 298 296 300 295 296 304 300 293 282 272 279 291 295 299 302 308 316 322 329
287 288 289 290 289 290 289 289 294 295 295 294 286 288 293 295 286 285 281 277 284 288 288 290 294 293 293 296 296 301 286 283 277 275 266 273 283 289 292 296 299 304 305 311
283 285 287 286 286 285 287 288 288 293 291 288 283 282 288 288 288 282 281 281 282 284 285 290 293 293 286 290 299 315 280 279 278 288 292 288 277 283 288 293 300 298 297 296
283 283 283 283 282 281 282 284 286 287 289 287 287 279 279 283 285 282 281 281 282 281 280 284 291 292 290 292 301 295 286 286 281 287 290 297 297 286 279 285 289 289 294 294
280 282 282 283 284 281 279 284 286 282 282 283 281 283 279 275 283 281 281 281 281 284 283 282 288 291 288 295 303 299 287 283 282 280 279 289 288 287 284 279 277 278 279 282
274 274 276 278 281 280 280 282 281 278 278 280 276 279 287 286 281 280 282 280 277 276 277 281 282 282 288 298 293 294 298 295 287 280 285 284 285 293 290 285 282 284 278 275
276 276 276 272 275 278 279 279 278 276 276 278 278 276 281 287 291 287 283 281 280 278 279 277 275 278 288 294 289 291 293 291 290 287 286 283 281 280 279 282 287 288 287 283
273 273 273 273 272 272 273 273 271 273 277 277 278 280 283 285 290 291 289 286 285 283 281 279 279 282 291 290 289 289 288 288 290 288 286 286 286 286 284 284 284 280 281 283
272 269 268 267 268 265 266 269 272 275 274 274 280 282 283 285 287 288 286 284 284 283 283 285 286 288 295 289 288 288 286 286 285 285 287 287 288 290 288 286 285 284 280 282
272 270 269 267 264 261 263 272 273 276 276 277 280 279 278 279 282 285 286 286 284 283 280 279 282 291 291 289 287 286 285 283 281 281 283 284 286 288 289 288 286 284 284 283
268 266 268 268 268 269 271 273 274 273 271 271 272 273 272 274 276 278 282 282 282 280 280 280 283 289 291 287 285 282 281 280 280 282 285 286 286 287 289 286 281 278 277 276
264 265 264 267 272 273 275 274 272 271 271 271 272 273 274 273 275 278 278 282 280 279 279 284 289 288 286 286 283 281 286 289 288 287 285 284 285 285 284 281 277 276 278 281
262 262 262 271 275 272 274 272 271 270 271 271 271 270 271 271 272 273 274 274 275 278 284 289 286 283 281 281 286 288 286 284 282 288 283 283 285 279 276 275 277 276 276 277
259 261 267 271 270 272 271 270 270 270 269 269 269 269 269 267 267 269 271 272 275 283 284 279 277 278 272 280 282 275 278 279 281 280 275 277 281 281 280 279 278 273 268 266
259 265 269 269 268 267 269 269 268 267 267 267 266 266 268 268 269 268 270 272 275 277 276 274 274 274 274 277 279 276 278 281 282 283 281 276 275 277 280 281 275 272 274 272